Location: Cactus School
(34.5700°N, 118.0931°W)
Time: 20:55:04
(UTC-08:00)

A-11 Canister half - Pass Details

Date: 21 November 2019
Orbit: 1515 x 1684 km, 47.2° (Epoch: 14 December)

Event Time Altitude Azimuth Distance (km) Brightness Sun altitude
Rises 21:18:03 0° 299° (WNW) 4,936 12.2 -55.9°
Reaches altitude 10° 21:21:25 10° 305° (NW) 3,951 11.5 -56.5°
Enters shadow 21:24:30 22° 314° (NW) 3,113 10.8 -57.1°
